Broken Bow, NE

7:07 PM CST on November 22, 2017 (GMT -0600)
Broken Bow Municipal

Weather History for KBBW - March, 2014

Change the Weather History Date:

Thursday, March 20, 2014

  Actual Average Record
Temperature  
Mean Temperature 42 °F 39 °F  
Max Temperature 61 °F 53 °F 82 °F (2004)
Min Temperature 23 °F 26 °F -10 °F (1965)
Degree Days  
Heating Degree Days 23 26  
Month to date heating degree days 602 585  
Cooling Degree Days 0 0  
Month to date cooling degree days 0 0  
Year to date cooling degree days 0 0  
Moisture  
Dew Point 21 °F    
Average Humidity 53    
Maximum Humidity 88    
Minimum Humidity 17    
Precipitation  
Precipitation 0.00 in 0.05 in 0.70 in (1937)
Snow  
Snow 0.00 in - - ()
Snow Depth -    
Sea Level Pressure  
Sea Level Pressure 29.90 in    
Wind  
Wind Speed 6 mph (WSW)    
Max Wind Speed 17 mph    
Max Gust Speed 22 mph    
Visibility 10 miles    
Events      
T = Trace of Precipitation, MM = Missing Value Source: NWS Daily Summary

Daily Weather History Graph

Daily Weather History Graph

Search for Another Location

Airport or City:

Trip Planner

Search our weather history database for the weather conditions in past years. The results will help you decide how hot, cold, wet, or windy it might be!

Date:

Astronomy

Mar. 20, 2014 Rise Set
Actual Time 7:41 AM CDT 7:50 PM CDT
Civil Twilight 7:14 AM CDT 8:18 PM CDT
Nautical Twilight 6:41 AM CDT 8:50 PM CDT
Astronomical Twilight 6:09 AM CDT 9:23 PM CDT
Moon No Moon Rise 9:46 AM CDT (3/20)
Length of Visible Light 13h 04m
Length of Day
12h 08m
Waning Gibbous, 84% of the Moon is Illuminated
Mar 20
Waning Gibbous
Mar 23
Last Quarter
Mar 30
New
Apr 7
First Quarter
Apr 15
Full

Hourly Weather History & Observations

Time (CDT) Temp. Windchill Dew Point Humidity Pressure Visibility Wind Dir Wind Speed Gust Speed Precip Events Conditions
12:53 AM 30.9 °F - 23.0 °F 72% 30.04 in 10.0 mi Calm Calm - N/A   Clear
1:53 AM 30.9 °F 27.5 °F 23.0 °F 72% 30.03 in 10.0 mi SW 3.5 mph - N/A   Clear
2:53 AM 30.9 °F 27.5 °F 21.9 °F 69% 30.03 in 10.0 mi SW 3.5 mph - N/A   Clear
3:53 AM 26.1 °F - 21.9 °F 84% 30.01 in 10.0 mi Calm Calm - N/A   Clear
4:53 AM 23.0 °F - 19.9 °F 88% 29.99 in 10.0 mi Calm Calm - N/A   Clear
5:53 AM 28.9 °F - 21.0 °F 72% 29.96 in 10.0 mi Calm Calm - N/A   Clear
6:53 AM 26.1 °F - 21.0 °F 81% 29.95 in 10.0 mi Calm Calm - N/A   Clear
7:53 AM 28.9 °F 21.9 °F 21.0 °F 72% 29.95 in 10.0 mi SW 6.9 mph - N/A   Clear
8:53 AM 36.0 °F 29.6 °F 24.1 °F 62% 29.95 in 10.0 mi West 8.1 mph - N/A   Clear
9:53 AM 39.9 °F 35.1 °F 26.1 °F 58% 29.95 in 10.0 mi West 6.9 mph - N/A   Clear
10:53 AM 45.0 °F 39.7 °F 27.0 °F 49% 29.94 in 10.0 mi WNW 10.4 mph - N/A   Clear
11:53 AM 48.9 °F - 27.0 °F 43% 29.93 in 10.0 mi NW 10.4 mph - N/A   Clear
12:53 PM 53.1 °F - 26.1 °F 35% 29.91 in 10.0 mi WNW 10.4 mph - N/A   Clear
1:53 PM 57.9 °F - 21.9 °F 25% 29.88 in 10.0 mi NW 10.4 mph - N/A   Clear
2:53 PM 59.0 °F - 16.0 °F 19% 29.86 in 10.0 mi NNW 8.1 mph - N/A   Clear
3:53 PM 60.1 °F - 18.0 °F 20% 29.86 in 10.0 mi West 12.7 mph 19.6 mph N/A   Clear
4:53 PM 60.1 °F - 16.0 °F 18% 29.85 in 10.0 mi South 9.2 mph - N/A   Clear
5:53 PM 61.0 °F - 18.0 °F 19% 29.81 in 10.0 mi SW 8.1 mph - N/A   Clear
6:53 PM 59.0 °F - 17.1 °F 20% 29.80 in 10.0 mi South 9.2 mph - N/A   Clear
7:53 PM 50.0 °F - 19.0 °F 29% 29.80 in 10.0 mi SSE 6.9 mph - N/A   Clear
8:53 PM 46.0 °F 41.4 °F 21.0 °F 37% 29.78 in 10.0 mi SSE 9.2 mph - N/A   Clear
9:53 PM 43.0 °F 40.3 °F 21.0 °F 42% 29.78 in 10.0 mi SSE 4.6 mph - N/A   Clear
10:53 PM 39.9 °F - 19.9 °F 45% 29.78 in 10.0 mi Calm Calm - N/A   Clear
11:53 PM 37.9 °F 33.5 °F 19.0 °F 47% 29.78 in 10.0 mi SSW 5.8 mph - N/A   Clear